TIME,DELAY(SENSOR),PRES,OXYGEN,RAWTEMP,T(OPTODE),TCPHASE,FLUOR,BETA(BETA700),BETA(BETA412),BETA(BETA440),CDOM,C(CSC),ED(ED411.90),ED(ED443.80),ED(ED489.40),ED(ED554.70),LU(LU412.20),LU(LU443.80),LU(LU489.40),LU(LU555.00),COMP,TILTX,TILTY,CHECK
1343600943,5807,847.7700195312500000,171.5682983398437500,392.4364013671875000,10.8331298828125000,37.9905586242675800,52,98,99,79,79,14275,2146960128,2147513810,2147278665,2147503716,2147094125,2146934354,2147698980,2147118555,41,-2,8,1229
1343604539,5805,973.1400146484375000,187.4409027099609400,480.4440002441406000,8.1349582672119140,38.3612709045410160,52,105,100,80,81,14261,2146959963,2147517513,2147291702,2147518473,2147092480,2146926765,2147716589,2147120950,2216,-1,8,20885
1343608139,5805,1004.1300048828125000,197.4718933105468800,495.1915893554687500,7.6785941123962400,37.9725303649902340,52,102,100,78,81,14261,2146961060,2147515931,2147294948,2147522514,2147090313,2146921536,2147717595,2147120182,3318,-1,8,47438
1343611739,5800,1010.4799804687500000,197.8435974121093800,494.9746093750000000,7.6853170394897460,37.9458084106445300,52,104,100,80,81,14259,2146954779,2147517037,2147294994,2147522889,2147088594,2146924032,2147715968,2147119744,3367,-2,8,10582
1343615339,5805,1013.8400268554688000,197.7295989990234400,495.1203918457031000,7.6807999610900880,37.9547500610351560,52,104,99,79,82,14261,2146959140,2147515483,2147296338,2147523675,2147089746,2146923300,2147716086,2147120502,500,-2,8,28686
1343618939,5807,1013.9600219726562000,198.8542938232422000,497.4327087402344000,7.6091179847717285,37.9254188537597660,52,103,100,79,81,14256,2146959524,2147517366,2147295003,2147523922,2147092388,2146925074,2147717851,2147116918,441,-2,8,15558
1343622539,5807,1015.9000244140625000,198.9223022460937500,500.6007080078125000,7.5108561515808105,37.9757118225097660,53,103,100,80,81,14255,2146960356,2147517915,2147293046,2147519332,2147091940,2146926893,2147716553,2147119360,112,-1,8,51090
1343626139,5806,1011.9899902343750000,199.1304016113281200,502.3002014160156000,7.4581160545349120,37.9926109313964840,53,101,100,80,81,14249,2146958646,2147521682,2147294034,2147522294,2147093129,2146924141,2147717540,2147121865,677,-1,8,54979
1343629739,5806,1008.9500122070312000,201.5032958984375000,504.7901000976562500,7.3808069229125980,37.8904113769531250,52,104,100,79,81,14251,2146955309,2147517193,2147289947,2147523026,2147091830,2146925942,2147716086,2147115227,3197,-1,8,4819
1343633339,5807,1012.2600097656250000,202.2528991699218800,505.7385864257812500,7.3513488769531250,37.8606910705566400,52,105,99,79,81,14252,2146955977,2147519360,2147294409,2147522678,2147088996,2146919881,2147716525,2147119268,437,-2,8,49346
1343636939,5806,1014.1300048828125000,201.2624053955078000,505.1337890625000000,7.3701348304748535,37.9112091064453100,53,101,99,78,81,14165,2146958793,2147517165,2147293229,2147518427,2147090450,2146923410,2147717449,2147117074,3537,-2,8,43566
1343640539,5805,1009.0999755859375000,201.4848937988281200,505.6731872558594000,7.3533811569213870,37.9065208435058600,52,102,99,80,81,14163,2146959780,2147518555,2147293549,2147523145,2147092580,2146923894,2147716900,2147118674,2932,-2,8,26830
1343644139,5806,1013.4000244140625000,201.2297058105468800,505.9943847656250000,7.3434019088745120,37.9277305603027340,52,102,101,79,82,14163,2146957723,2147518400,2147296402,2147523456,2147090258,2146926134,2147715181,2147118244,493,-1,8,16417
1343647739,5804,1014.4799804687500000,200.9797973632812500,505.8413085937500000,7.3481588363647460,37.9411888122558600,53,104,99,78,82,14161,2146958537,2147517412,2147297353,2147520502,2147093577,2146922651,2147718555,2147118372,3402,-1,8,45638
1343651339,5806,1018.4799804687500000,200.9893035888672000,505.1972045898437500,7.3681650161743160,37.9290008544921900,53,101,100,79,82,14160,2146957659,2147520356,2147296064,2147521536,2147090998,2146923712,2147720429,2147117494,3555,-2,8,18608
1343654939,5805,1021.9000244140625000,201.2922973632812500,504.1622009277344000,7.4003081321716310,37.8921089172363300,52,104,100,79,81,14158,2146959478,2147519442,2147295094,2147520978,2147090541,2146922724,2147718784,2147116342,668,-2,8,61286
1343658539,5804,1022.5800170898438000,201.0579986572265600,503.7163085937500000,7.4141540527343750,37.8987007141113300,53,105,98,80,81,14158,2146960292,2147516662,2147293065,2147521654,2147092077,2146921124,2147718098,2147120621,3469,-2,8,39966
1343662139,5806,1019.6900024414062000,200.4060058593750000,504.3767089843750000,7.3936471939086910,37.9506988525390600,52,104,100,80,81,14085,2146962020,2147518500,2147295113,2147518555,2147092525,2146921033,2147717421,2147116205,3370,-2,8,3103
1343665739,5805,1017.4199829101562000,201.4665985107422000,506.2525024414062500,7.3353848457336430,37.9184608459472660,52,103,99,79,81,14091,2146961837,2147517065,2147293330,2147522898,2147090852,2146925686,2147716626,2147117430,3148,-2,8,24413
1343669339,5805,1014.3800048828125000,202.2740020751953000,507.8995971679687500,7.2842059135437010,37.8971405029296900,53,102,100,80,82,14084,2146958409,2147520859,2147294153,2147523291,2147090642,2146924379,2147715657,2147117312,218,-2,8,33938
1343672939,5806,1015.6300048828125000,204.5493927001953000,507.7571105957031000,7.2886347770690920,37.7571487426757800,52,101,99,79,81,14086,2146958363,2147520009,2147296210,2147522157,2147090980,2146923657,2147718802,2147117101,3462,-2,8,32543
1343676539,5805,1018.2299804687500000,204.8106994628906200,508.2012023925781000,7.2748317718505860,37.7493400573730500,53,104,98,78,81,14081,2146958235,2147513965,2147293933,2147523492,2147090029,2146923209,2147716553,2147118070,3529,-2,8,38165
1343680139,5806,1015.7100219726562000,205.7397003173828000,508.2226867675781000,7.2741661071777340,37.6935310363769500,52,104,101,80,81,14085,2146962304,2147516214,2147298404,2147525558,2147091803,2146920786,2147720585,2147115995,24,-2,8,6037
1343683739,5809,1017.5499877929688000,205.4226989746093800,508.3062133789062500,7.2715711593627930,37.7145195007324200,52,106,99,80,82,14086,2146957376,2147517814,2147294162,2147524086,2147094153,2146924562,2147718016,2147120146,51,-1,8,32792
1343687339,5805,1017.9899902343750000,204.8011932373047000,508.4035034179687500,7.2685441970825195,37.7530097961425800,52,105,101,80,82,14088,2146960987,2147518025,2147297755,2147523382,2147091830,2146921398,2147718025,2147117001,3549,-1,8,7628
1343690939,5807,1016.4600219726562000,205.4221038818359400,509.0707092285156000,7.2478070259094240,37.7271614074707000,52,104,101,79,81,14087,2146958308,2147517604,2147294198,2147522413,2147093988,2146926098,2147720841,2147115721,3500,-1,8,49545
1343694539,5805,1019.3300170898438000,206.5874023437500000,508.8511962890625000,7.2546300888061520,37.6534004211425800,52,105,101,80,81,14082,2146959076,2147518400,2147291730,2147524260,2147092105,2146920612,2147719597,2147120530,3449,-1,8,59550
1343698139,5803,1025.5300292968750000,204.5680999755859400,507.1426086425781000,7.3077301979064940,37.7451210021972660,52,104,102,79,81,14084,2146960365,2147517357,2147293376,2147522761,2147090514,2146924946,2147718738,2147120045,3508,-1,8,40465
1343701739,5804,1028.9200439453125000,201.4886016845703000,506.6106872558594000,7.3242578506469730,37.9234809875488300,52,102,99,79,81,14088,2146954962,2147519506,2147294125,2147523894,2147091510,2146919625,2147719030,2147117961,3571,-2,8,8842
1343705339,5809,1026.8199462890625000,201.5764007568359400,506.5339050292969000,7.3266410827636720,37.9168815612793000,53,102,99,79,82,14085,2146960621,2147516288,2147294006,2147523812,2147091620,2146920941,2147721078,2147117961,6,-2,8,13260
1343708939,5804,1023.3200073242188000,201.2203063964843800,507.0488891601562500,7.3106417655944820,37.9475593566894500,53,108,102,80,81,14086,2146960064,2147520859,2147297664,2147522980,2147094052,2146925120,2147715922,2147117558,3373,-2,8,5927
1343712539,5805,1022.1900024414062000,205.6201934814453000,509.5231018066406000,7.2337422370910645,37.7236900329589840,52,104,100,78,81,14083,2146958070,2147515721,2147295634,2147522432,2147091849,2146923602,2147720192,2147117056,220,-2,8,11876
1343716139,5809,1016.9899902343750000,206.4570007324218800,509.7242126464844000,7.2274918556213380,37.6769294738769500,53,107,100,80,81,14082,2146959597,2147517778,2147291282,2147523053,2147090944,2146920813,2147723172,2147115611,31,-1,8,51230
1343719739,5807,1015.9799804687500000,207.1658935546875000,510.2134094238281000,7.2122797966003420,37.6432304382324200,53,106,100,79,80,14081,2146958637,2147515766,2147296073,2147523410,2147089984,2146926628,2147716909,2147116461,2897,-2,8,50644
1343723339,5806,1017.2600097656250000,206.4848022460937500,511.2579040527344000,7.1798000335693360,37.7019500732421900,52,103,100,80,81,14082,2146959753,2147514304,2147297837,2147524534,2147089837,2146923949,2147717860,2147117110,194,-2,8,34013
1343726939,5806,1015.6699829101562000,207.4553070068359400,510.9992980957031000,7.1878409385681150,37.6403999328613300,53,103,100,80,81,14073,2146958281,2147514368,2147299108,2147521133,2147094656,2146923666,2147722770,2147115830,3275,-2,8,6774
1343730539,5805,1016.5599975585938000,207.4757995605468800,512.0366821289062000,7.1555747985839840,37.6571388244628900,52,107,101,81,81,14081,2146961033,2147519488,2147298203,2147522285,2147094555,2146917805,2147718034,2147115876,3484,-2,8,30582
1343734139,5805,1020.8300170898438000,207.5455932617187500,510.3505859375000000,7.2080140113830570,37.6229591369628900,52,104,99,79,81,14080,2146961344,2147516854,2147296045,2147519762,2147093184,2146923885,2147721517,2147115300,3234,-2,8,43695
1343737739,5805,1017.8900146484375000,206.7438049316406200,511.0309143066406000,7.1868600845336910,37.6833000183105500,53,104,101,79,80,14079,2146959881,2147520320,2147295314,2147520649,2147089344,2146923108,2147720393,2147120448,291,-2,8,24229
1343741339,5808,1021.9899902343750000,207.3412017822265600,510.3843078613281000,7.2069649696350100,37.6363716125488300,52,103,100,79,81,14084,2146957878,2147519561,2147297490,2147522057,2147091547,2146924022,2147722331,2147119003,28,-1,8,13193
1343742655,5804,1027.6099853515625000,207.1051940917968800,509.8764038085937500,7.2227587699890140,37.6410903930664060,52,104,102,79,81,14242,2146959104,2147518976,2147297920,2147521664,2147091721,2146925156,2147722569,2147120292,3413,-2,8,37556
